Location: Newark
(25.4800°N, 85.7200°E)
Time: 11:05:11
(UTC+00:00)

Envisat - Visible Passes

Search period start: 17 July 2019 00:00
Search period end: 27 July 2019 00:00
Orbit: 764 x 766 km, 98.1° (Epoch: 17 July)

Date Brightness Start Highest point End Pass type
(mag) Time Alt. Az. Time Alt. Az. Time Alt. Az.
18 Jul 5.7 13:55:40 10° SW 13:58:47 16° W 14:01:56 10° WNW visible
21 Jul 5.5 13:43:39 10° SSW 13:47:30 22° W 13:51:22 10° NW visible
23 Jul 6.1 14:12:08 10° WSW 14:13:09 11° W 14:14:11 10° W visible
24 Jul 5.1 13:31:53 10° SSW 13:36:13 29° W 13:40:34 10° NW visible
26 Jul 5.8 13:59:05 10° SW 14:01:51 15° W 14:04:36 10° WNW visible
